Regional Weather Roundup
Issued by NWS

Home | Current Version | Previous Version | Graphics & Text | Print | Product List | Glossary On
Versions: 1 2 3 4 5 6 7 8 9 10 11 12 13 14 15 16 17 18 19 20 21 22 23 24 25 26 27 28 29 30 31 32 33 34 35 36 37 38 39 40 41 42 43 44 45 46 47 48 49 50
265
ASUS43 KDMX 301701
RWRIA

WEATHER ROUNDUP FOR IOWA
NATIONAL WEATHER SERVICE DES MOINES IA
1200 PM CDT SUN APR 30 2017

NOTE: "FAIR" INDICATES FEW OR NO CLOUDS BELOW 12,000 FEET WITH NO
SIGNIFICANT WEATHER AND/OR OBSTRUCTIONS TO VISIBILITY.

* - THESE STATIONS ARE NOT NWS STATIONS...THUS NOT UNDER NWS
QUALITY CONTROL.  THEY ALSO DO NOT REPORT WEATHER SUCH
AS PRECIPITATION OR FOG.

IAZ001>003-012>014-020>022-031>034-043>046-301800-
   NORTHWEST IOWA

CITY           SKY/WX    TMP DP  RH WIND       PRES   REMARKS
CARROLL *      PTSUNNY   41  41 100 NE22G35   29.73S
CHEROKEE *     CLOUDY    39  38  98 NE15G26   29.81F WCI  30
DENISON *      CLOUDY    39  37  93 NE31G45   29.71F WCI  27
ORANGE CITY *  DRIZZLE   39  37  93 NE15G24   29.83F WCI  31
SHELDON *      RAIN      39  37  93 NE24G31   29.84F WCI  28
SIOUX CITY     LGT RAIN  41  39  93 NE21G32   29.78F FOG
SPENCER        LGT RAIN  40  38  93 NE20G31   29.86F FOG     WCI  30
STORM LAKE *   CLOUDY    37  37 100 NE26G36   29.76F FOG     WCI  26
$$

IAZ055>058-069>071-079>083-090>094-301800-
   SOUTHWEST IOWA

CITY           SKY/WX    TMP DP  RH WIND       PRES   REMARKS
ATLANTIC *     CLOUDY    43  41  93 NE25G37   29.64F
AUDUBON *      CLOUDY    41  39  93 NE25G36   29.68F
CLARINDA *     CLOUDY    45  45 100 E25G36    29.58F
COUNCIL BLFS *   N/A     41  41 100 NE35G45   29.57F
CRESTON *      CLOUDY    43  43 100 NE31G38   29.59F
HARLAN  *      CLOUDY    41  41 100 NE26G36   29.69F
LAMONI         CLOUDY    45  43  93 NE21G28   29.59F
RED OAK *      CLOUDY    45  43  93 NE24G38   29.57F
SHENANDOAH *   MIX PCPN  45  43  93 NE29G41   29.52F
$$

IAZ047>049-059>061-072>074-084-301800-
   CENTRAL IOWA

CITY           SKY/WX    TMP DP  RH WIND       PRES   REMARKS
AMES           LGT RAIN  42  42 100 E21G29    29.72F
ANKENY *       CLOUDY    43  41  93 NE20G26   29.71F
BOONE *        LGT RAIN  41  41 100 E24G36    29.72F
CHARITON *     LGT RAIN  43  43 100 NE21G30   29.64F
DES MOINES     DRIZZLE   43  40  89 E23G29    29.68F
GRINNELL*      CLOUDY    41  40  97 NE23      29.78F FOG
KNOXVILLE *    LGT RAIN  43  43 100 NE21      29.67F
MARSHALLTOWN   LGT RAIN  42  41  96 NE22      29.77F
NEWTON *       CLOUDY    41  41 100 E28G35    29.73F
PELLA *        LGT RAIN  43  42  97 E16G24    29.72F
PERRY *        CLOUDY    42  40  94 NE24G32   29.70F
$$

IAZ004>006-015-016-023>025-035-036-301800-
   NORTH CENTRAL IOWA

CITY           SKY/WX    TMP DP  RH WIND       PRES   REMARKS
ALGONA *       LGT RAIN  39  39 100 NE13G23   29.87S WCI  32
CLARION *      CLOUDY    41  41 100 NE21      29.81F
ESTHERVILLE    CLOUDY    38  37  97 NE22      29.89R WCI  27
FORT DODGE *   CLOUDY    41  36  81 NE17G24   29.77F
MASON CITY     CLOUDY    41  37  86 E18       29.88F
FOREST CITY *  CLOUDY    41  34  75 E12       29.87F
WEBSTER CITY * CLOUDY    41  39  93 NE22      29.75F
IOWA FALLS *   DRIZZLE   41  39  91 NE15G26   29.80F
$$

IAZ007>011-017>019-026>030-037>042-050>054-066-301800-
   NORTHEAST IOWA

CITY           SKY/WX    TMP DP  RH WIND       PRES   REMARKS
CEDAR RAPIDS   CLOUDY    42  42 100 NE18      29.78F FOG
CHARLES CITY * MIX PCPN  41  39  93 E21G28    29.87F
CLINTON *      CLOUDY    44  43  96 NE20      29.82
DECORAH *      CLOUDY    41  37  87 E15       29.89F
DUBUQUE        CLOUDY    42  40  92 NE17G25   29.84F
MONTICELLO *   CLOUDY    43  41  93 NE12G24   29.83F
OELWEIN *      CLOUDY    43  41  93 E21G29    29.84F
WATERLOO       CLOUDY    42  38  85 NE21      29.84F
$$

IAZ064-065-067-068-078-301800-
   EAST CENTRAL IOWA

CITY           SKY/WX    TMP DP  RH WIND       PRES   REMARKS
DAVENPORT      LGT RAIN  45  43  93 NE20      29.79F
IOWA CITY      CLOUDY    46  43  89 NE17G26   29.78F
MUSCATINE *    CLOUDY    46  45  93 NE20      29.78S
QUAD CITIES    CLOUDY    46  43  89 NE17      29.78F FOG
$$

IAZ062-063-075>077-085>089-095>099-301800-
   SOUTHEAST IOWA

CITY           SKY/WX    TMP DP  RH WIND       PRES   REMARKS
BURLINGTON     CLOUDY    47  47 100 NE16G22   29.72R FOG
FAIRFIELD *    CLOUDY    45  43  93 NE15      29.75R
FORT MADISON * CLOUDY    46  46 100 NE9       29.74S FOG
KEOKUK *       CLOUDY    48  46  93 NE9       29.72S FOG
OSKALOOSA *    CLOUDY    43  42  96 NE17      29.75F
OTTUMWA        CLOUDY    45  43  93 NE17G24   29.73F
WASHINGTON *   CLOUDY    45  45 100 E20G26    29.78R
$$

ABBREVIATIONS USED IN REMARKS
   TC - TEMPERATURES IN CELSIUS
  WCI - WIND CHILL INDEX
   HX - HEAT INDEX
  VSB - VISIBILITY
$$





USA.gov is the U.S. government's official web portal to all federal, state and local government web resources and services.